Find Starlink 31501

NORAD ID: 59359 Int'l Des: 2024-060 Owner: SPXS Country: US Constellation: starlink operational
LEOCIRCULAR

Live Position

Loading 3D Globe...

About Starlink 31501

Description loading...

Upcoming Passes

Passes for default location (London). Set your location on the main map for personalized predictions.

Altitude History

Loading altitude history...

Two-Line Element Set

1 59359U 24060M 26126.84171854 -.00000530 00000-0 -97227-5 0 9990
2 59359 43.0064 291.6915 0001769 273.9426 86.1224 15.27567334118959
Epoch: May 6, 2026 • Age: 11 hours

Current Status

Altitude 483.5 km
Velocity 7.63 km/s
Sub-Earth Point -5.74°S, 49.43°W
Launch Date Mar 31, 2024
Age 2 years
Type internet

Technical Details

Classification Payload
Mass 730.00 kg
Dry Mass 700.00 kg
Total Mass 730.00 kg
Length 0.30 m
Diameter 4.10 m
Span 29.00 m
Shape Box + pan
Manufacturer SPXS
Bus Type Starlink V2M
Phase Status In Orbit
Owner/State SPXS/US

Most Searched